Flag for U.S.A. Weather past 2 weeks in Yonkers, New York, U.S.A.

Now
48 °F

Sunny.


Feels Like: 48 °F
Forecast: 38 / 47 °F
Wind: No wind

Location: Teterboro Airport

Current Time: Dec 26, 2014 at 2:30:52 PM

Latest Report: Dec 26, 2014 at 1:51 PM


Visibility: 10 mi

Pressure: 30.18 "Hg

Humidity: 50%

Dew point: 30 °F

Location of YonkersLocation

Historic Weather in Yonkers — Graph

°F

Yonkers temperature yesterday

Maximum temperature yesterday: 62 °F (at 3:51 AM)
Minimum temperature yesterday: 44 °F (at 11:51 PM)
Average temperature yesterday: 51 °F

Past Weeks' High & Low Weather Summary

 TemperatureHumidityPressure
High62 °F (Dec 25, 3:51 AM)100% (Dec 23, 5:51 PM)30.34 "Hg (Dec 23, 5:51 PM)
Low28 °F (Dec 15, 6:51 AM)20% (Dec 23, 6:51 AM)29.48 "Hg (Dec 25, 3:51 AM)
Average40 °F69%30.02 "Hg
* Reported Dec 11 12:51 PM — Dec 26 12:51 PM, Yonkers, Weather by CustomWeather, © 2014

Note: Actual official high and low records may vary slightly from our data, if they occured in-between our weather recording intervals... More about our weather records

Advertising

Yonkers weather history for previous 24 hours

 ConditionsComfort  
Time TempWeatherWind HumidityBarometerVisibility
12:51 PM
Dec 26
46 °FSunny.9 mph51%30.20 "Hg10 mi
11:51 AM45 °FSunny.8 mph56%30.22 "Hg10 mi
10:51 AM44 °FSunny.12 mph58%30.24 "Hg10 mi
9:51 AM43 °FSunny.9 mph58%30.25 "Hg10 mi
8:51 AM39 °FSunny.3 mph67%30.25 "Hg10 mi
7:51 AM36 °FSunny.7 mph75%30.23 "Hg10 mi
6:51 AM36 °FClear.6 mph75%30.22 "Hg10 mi
5:51 AM35 °FClear.7 mph78%30.19 "Hg10 mi
4:51 AM38 °FClear.5 mph73%30.16 "Hg10 mi
3:51 AM39 °FClear.5 mph70%30.14 "Hg10 mi
2:51 AM40 °FClear.9 mph68%30.16 "Hg10 mi
1:51 AM39 °FClear.7 mph70%30.14 "Hg10 mi
12:51 AM41 °FClear.8 mph62%30.12 "Hg10 mi
11:51 PM
Dec 25
44 °FClear.6 mph53%30.11 "Hg10 mi
10:51 PM45 °FClear.8 mph53%30.09 "Hg10 mi
9:51 PM46 °FClear.7 mph51%30.07 "Hg10 mi
8:51 PM46 °FClear.6 mph56%30.05 "Hg10 mi
7:51 PM47 °FPassing clouds.7 mph52%30.03 "Hg10 mi
6:51 PM48 °FClear.12 mph50%30.00 "Hg10 mi
5:51 PM49 °FPassing clouds.10 mph48%29.96 "Hg10 mi
4:51 PM50 °FPassing clouds.13 mph44%29.93 "Hg10 mi
3:51 PM51 °FOvercast.15 mph42%29.89 "Hg10 mi
2:51 PM51 °FOvercast.18 mph46%29.86 "Hg10 mi
Weather by CustomWeather, © 2014

See weather overviewHow to use our weather pages